sat.trackr.live / text

‹ back to catalog

STARLINK-34380

NORAD 64307 · 2025-123S

PAYLOAD ACTIVE UNKNOWN

§ Identity

Operator
Country
US
Launch date
2025-06-08
Launch site
AFWTR
Launch vehicle
Mass (kg)
RCS (m²)

Purposes: comms

External: N2YO · Heavens-Above · Gunter

§ Orbital elements

Epoch: 2026-05-25T04:00:03.998880Z

Period
96.11 min
Inclination
70.0019°
Eccentricity
0.0002409
Mean motion
14.98348439 rev/d
Perigee alt
570.3 km
Apogee alt
573.7 km
Semi-major
6,950.1 km
B*
-2.8819e-3
RAAN
1.7894°
Arg perigee
273.0583°
Mean anomaly
317.6958°
Rev number
540

§ Raw data

STARLINK-343801 64307U 25123S   26145.16671295 -.00034326  00000+0 -28819-2 0  99972 64307  70.0019   1.7894 0002409 273.0583 317.6958 14.98348439  5402

JSON: /api/v1/satellites/64307 · /tle

For live sub-satellite position, see the globe view (requires WebGL).

§ Visibility from observer

Set your observer location to see the next 7 days of passes ≥ 10°. The values pass through the URL so the page stays shareable.

No JS? Fill the form by hand. The geolocation button needs JavaScript.